Stations météo

Publicité
Logan Botanic Garden, Grande-Bretagne (99193): Température de l'air & dewpoint: 10.01.2019 16:00:00 - 16.01.2019 16:00:00 (GMT)Logan Botanic Garden, Grande-Bretagne (99193): Température de l'air -20cm: 10.01.2019 16:00:00 - 16.01.2019 16:00:00 (GMT)Logan Botanic Garden, Grande-Bretagne (99193): Quantités de précipitations: 10.01.2019 16:00:00 - 16.01.2019 16:00:00 (GMT)
Date & Time tt [°C] td [°C] tt -20cm [°C] rr [mm]
16.01.2019 16:00:00 5,0 3,2 - 0,4
16.01.2019 15:00:00 6,5 1,9 - 0,0
16.01.2019 14:00:00 5,9 2,0 - 0,0
16.01.2019 13:00:00 7,0 2,3 - 0,0
16.01.2019 12:00:00 7,2 2,9 - 0,0
16.01.2019 11:00:00 6,9 3,3 - 0,0
16.01.2019 10:00:00 6,5 3,3 - 0,0
16.01.2019 09:00:00 6,3 2,7 8,0 0,0
16.01.2019 08:00:00 6,8 4,4 - 0,0
16.01.2019 07:00:00 7,0 4,5 - 0,0
16.01.2019 06:00:00 7,1 5,0 - 0,0
16.01.2019 05:00:00 7,2 5,2 - 0,0
16.01.2019 04:00:00 7,3 5,8 - 0,6
16.01.2019 03:00:00 9,1 7,6 - 0,0
16.01.2019 02:00:00 8,9 7,7 - 0,0
16.01.2019 01:00:00 8,8 7,8 - 0,0
16.01.2019 00:00:00 9,0 7,9 - 0,0
15.01.2019 23:00:00 8,9 7,9 - 0,0
15.01.2019 22:00:00 9,0 7,9 - 0,0
15.01.2019 21:00:00 9,0 8,0 - 0,0
15.01.2019 20:00:00 9,1 8,1 - 0,0
15.01.2019 19:00:00 8,8 7,9 - 0,0
15.01.2019 18:00:00 9,1 7,6 - 0,0
15.01.2019 17:00:00 9,0 7,6 - 0,0
15.01.2019 16:00:00 8,7 7,4 - 0,0
15.01.2019 15:00:00 8,8 7,0 - 0,0
15.01.2019 14:00:00 9,1 7,1 - 0,2
15.01.2019 13:00:00 9,2 7,2 - 0,0
15.01.2019 12:00:00 9,4 7,0 - 0,0
15.01.2019 11:00:00 9,4 6,6 - 0,0
15.01.2019 10:00:00 9,4 6,9 - 0,0
15.01.2019 09:00:00 8,0 6,6 8,0 0,0
15.01.2019 08:00:00 8,0 6,7 - 0,0
15.01.2019 07:00:00 8,4 6,8 - 0,0
15.01.2019 06:00:00 8,5 7,0 - 0,0
15.01.2019 05:00:00 8,5 6,8 - 0,0
15.01.2019 04:00:00 8,7 7,0 - 0,0
15.01.2019 03:00:00 8,6 7,2 - 0,0
15.01.2019 02:00:00 8,6 7,2 - 0,0
15.01.2019 01:00:00 8,4 7,1 - 0,0
15.01.2019 00:00:00 8,3 7,1 - 0,0
14.01.2019 23:00:00 8,1 6,9 - 0,0
14.01.2019 22:00:00 8,1 6,9 - 0,0
14.01.2019 21:00:00 8,0 6,8 - 0,0
14.01.2019 20:00:00 7,9 6,0 - 0,0
14.01.2019 19:00:00 7,9 5,4 - 0,0
14.01.2019 18:00:00 8,0 5,1 - 0,0
14.01.2019 17:00:00 7,7 4,7 - 0,0
14.01.2019 16:00:00 8,0 5,1 - 0,0
14.01.2019 15:00:00 8,2 5,0 - 0,0
14.01.2019 14:00:00 8,2 4,7 - 0,0
14.01.2019 13:00:00 7,8 4,8 - 0,0
14.01.2019 12:00:00 8,7 5,2 - 0,0
14.01.2019 11:00:00 7,4 4,9 - 0,0
14.01.2019 10:00:00 7,3 5,1 - 0,2
14.01.2019 09:00:00 7,2 3,7 8,0 0,0
14.01.2019 08:00:00 8,2 3,9 - 0,0
14.01.2019 07:00:00 8,4 3,9 - 0,0
14.01.2019 06:00:00 8,3 4,8 - 0,0
14.01.2019 05:00:00 8,0 4,9 - 0,2
14.01.2019 04:00:00 8,1 3,9 - 0,0
14.01.2019 03:00:00 7,5 5,0 - 0,0
14.01.2019 02:00:00 8,2 4,8 - 0,0
14.01.2019 01:00:00 7,8 5,1 - 0,0
14.01.2019 00:00:00 8,0 5,5 - 0,2
13.01.2019 23:00:00 8,5 4,8 - 0,0
13.01.2019 22:00:00 8,4 4,9 - 0,0
13.01.2019 21:00:00 8,2 5,3 - 0,0
13.01.2019 20:00:00 7,8 5,1 - 0,4
13.01.2019 19:00:00 8,1 5,0 - 0,0
13.01.2019 18:00:00 8,2 5,4 - 0,2
13.01.2019 17:00:00 8,8 4,8 - 0,0
13.01.2019 16:00:00 8,7 4,8 - 0,0
13.01.2019 15:00:00 9,0 5,0 - 0,0
13.01.2019 14:00:00 9,8 5,2 - 0,0
13.01.2019 13:00:00 9,5 6,3 - 0,4
13.01.2019 12:00:00 9,8 8,1 - 0,0
13.01.2019 11:00:00 9,6 8,4 - 0,0
13.01.2019 10:00:00 9,8 8,9 - 0,4
13.01.2019 09:00:00 9,7 9,2 7,9 0,4
13.01.2019 08:00:00 9,5 8,9 - 0,0
13.01.2019 07:00:00 9,6 8,6 - 0,2
13.01.2019 06:00:00 9,5 8,5 - 0,0
13.01.2019 05:00:00 9,6 8,2 - 0,0
13.01.2019 04:00:00 9,7 7,9 - 0,0
13.01.2019 03:00:00 9,8 7,7 - 0,0
13.01.2019 02:00:00 9,7 7,4 - 0,0
13.01.2019 01:00:00 10,0 7,8 - 0,0
13.01.2019 00:00:00 9,7 7,6 - 0,0
12.01.2019 23:00:00 10,3 8,4 - 0,0
12.01.2019 22:00:00 10,0 8,3 - 0,0
12.01.2019 21:00:00 10,6 8,3 - 0,0
12.01.2019 20:00:00 10,5 8,4 - 0,0
12.01.2019 19:00:00 10,7 8,0 - 0,0
12.01.2019 18:00:00 10,8 8,3 - 0,0
12.01.2019 17:00:00 10,7 8,4 - 0,0
12.01.2019 16:00:00 10,7 8,7 - 0,0
12.01.2019 15:00:00 10,1 9,0 - 0,0
12.01.2019 14:00:00 8,9 8,2 - 0,0
12.01.2019 13:00:00 8,3 7,4 - 0,2
12.01.2019 12:00:00 8,7 7,0 - 0,0
12.01.2019 11:00:00 8,6 7,0 - 0,0
12.01.2019 10:00:00 8,5 7,3 - 0,0
12.01.2019 09:00:00 8,9 6,7 7,7 0,0
12.01.2019 08:00:00 8,6 6,7 - 0,0
12.01.2019 07:00:00 8,8 6,5 - 0,0
12.01.2019 06:00:00 8,8 6,7 - 0,0
12.01.2019 05:00:00 8,8 6,7 - 0,0
12.01.2019 04:00:00 8,5 7,2 - 0,0
12.01.2019 03:00:00 8,8 7,8 - 0,4
12.01.2019 02:00:00 9,3 8,1 - 0,0
12.01.2019 01:00:00 9,1 7,8 - 0,0
12.01.2019 00:00:00 9,0 7,7 - 0,0
11.01.2019 23:00:00 8,8 7,4 - 0,0
11.01.2019 22:00:00 8,8 7,7 - 0,0
11.01.2019 21:00:00 8,7 7,4 - 0,0
11.01.2019 20:00:00 8,7 7,8 - 0,0
11.01.2019 19:00:00 8,7 7,8 - 0,0
11.01.2019 18:00:00 9,0 7,5 - 0,0
11.01.2019 17:00:00 9,1 7,6 - 0,0
11.01.2019 16:00:00 9,1 7,9 - 0,0
11.01.2019 15:00:00 9,2 8,0 - 0,0
11.01.2019 14:00:00 9,4 7,5 - 0,0
11.01.2019 13:00:00 9,6 7,6 - 0,0
11.01.2019 12:00:00 9,4 7,4 - 0,0
11.01.2019 11:00:00 9,3 7,3 - 0,0
11.01.2019 10:00:00 9,0 7,2 - 0,0
11.01.2019 09:00:00 8,7 7,2 7,5 0,0
11.01.2019 08:00:00 8,3 6,3 - 0,0
11.01.2019 07:00:00 8,5 6,1 - 0,0
11.01.2019 06:00:00 8,3 4,7 - 0,0
11.01.2019 05:00:00 7,6 5,0 - 0,0
11.01.2019 04:00:00 8,1 6,2 - 0,0
11.01.2019 03:00:00 6,9 5,0 - 0,0
11.01.2019 02:00:00 7,6 5,9 - 0,0
11.01.2019 01:00:00 7,8 6,0 - 0,0
11.01.2019 00:00:00 7,9 6,0 - 0,0
10.01.2019 23:00:00 8,0 6,2 - 0,0
10.01.2019 22:00:00 8,3 6,6 - 0,0
10.01.2019 21:00:00 7,9 5,9 - 0,0
10.01.2019 20:00:00 7,8 5,9 - 0,0
10.01.2019 19:00:00 8,0 5,9 - 0,0
10.01.2019 18:00:00 7,8 5,1 - 0,0
10.01.2019 17:00:00 8,7 5,0 - 0,0
10.01.2019 16:00:00 9,0 6,4 - 0,0

tt = Température de l'air
td = dewpoint
tt -20cm = Température de l'air -20cm
rr = Quantités de précipitations

stations d'obs. à proximité